User: anonymous   Login
Location: Unspecified
(0.0000°N, 0.0000°E)
Time: 15:28:20
(UTC+00:00)
Language:

KSAT 2 - Orbit

View from above orbital plane
View from above orbital plane
View from above satellite
View from above satellite

Ground track
Ground track

The orbit data is extracted from the following two-line orbital elements,

1 39573U 14009B   14180.27324337  .12117723  77125-5  22840-3 0  9996
2 39573 064.9724 350.6615 0012872 277.5106 083.0975 16.46364428 19203
Epoch (UTC): 29 June 2014 06:33:28
Eccentricity: 0.0012872
inclination: 64.9724°
perigee height: 140 km
apogee height: 157 km
right ascension of ascending node: 350.6615°
argument of perigee: 277.5106°
revolutions per day: 16.46364428
mean anomaly at epoch: 83.0975°
orbit number at epoch: 1920

The dashed part of the orbit path shows where the satellite is in the earth's shadow,  

DLR